Home > Weather > Husum > Past weeks

Flag for Germany Past Weather in Husum, Schleswig-Holstein, Germany — Yesterday and Last 2 Weeks

Now
61 °F

Cool.


Feels Like: 61 °F
Forecast: 59 / 73 °F
Wind: 12 mph from Northeast

Location: Schleswig-Jagel

Current Time: May 30, 2016 at 1:11:36 AM

Latest Report: May 30, 2016 at 12:20 AM


Visibility: N/A

Pressure: 29.80 "Hg

Humidity: 88%

Dew Point: 57 °F

Location of HusumLocation

Past Weather in Husum — Graph

°F

Husum Temperature Yesterday

Maximum temperature yesterday: 66 °F (at 4:20 PM)
Minimum temperature yesterday: 55 °F (at 12:20 AM)
Average temperature yesterday: 61 °F

High & Low Weather Summary for the Past Weeks

 TemperatureHumidityPressure
High81 °F (May 22, 2:20 PM)100% (May 21, 3:20 AM)30.07 "Hg (May 21, 3:20 AM)
Low37 °F (May 15, 3:20 AM)37% (May 22, 2:20 PM)29.68 "Hg (May 22, 1:20 PM)
Average58 °F81%29.90 "Hg
* Reported May 14 11:20 PM — May 29 11:20 PM, Husum, Weather by CustomWeather, © 2016

Note: Actual official high and low records may vary slightly from our data, if they occured in-between our weather recording intervals... More about our weather records

Advertising

Husum Weather History for the Previous 24 Hours

Scroll right to see more
 ConditionsComfort  
Time TempWeatherWind HumidityBarometerVisibility
11:20 PM
Sun, May 29
61 °FCool.15 mph88%29.80 "HgN/A
10:20 PM63 °FMild.13 mph83%29.80 "HgN/A
9:20 PM64 °FMild.17 mph83%29.80 "HgN/A
8:20 PM66 °FMild.17 mph78%29.80 "HgN/A
7:20 PM66 °FMild.14 mph78%29.80 "HgN/A
6:20 PM66 °FMild.16 mph78%29.80 "HgN/A
5:20 PM66 °FMild.14 mph78%29.83 "HgN/A
4:20 PM66 °FMild.16 mph73%29.83 "HgN/A
3:20 PM64 °FMild.16 mph78%29.86 "HgN/A
2:20 PM64 °FMild.15 mph78%29.86 "HgN/A
1:20 PM61 °FCool.14 mph88%29.86 "HgN/A
12:20 PM61 °FCool.14 mph83%29.89 "HgN/A
11:20 AM61 °FCool.13 mph83%29.89 "HgN/A
10:20 AM59 °FCool.14 mph82%29.89 "HgN/A
9:20 AM57 °FCool.14 mph88%29.89 "HgN/A
8:20 AM57 °FCool.13 mph88%29.89 "HgN/A
7:20 AM57 °FCool.13 mph88%29.92 "HgN/A
6:20 AM57 °FCool.13 mph88%29.92 "HgN/A
5:20 AM57 °FCool.12 mph88%29.92 "HgN/A
4:20 AM55 °FCool.12 mph94%29.92 "HgN/A
3:20 AM55 °FCool.12 mph94%29.92 "HgN/A
2:20 AM55 °FCool.10 mph94%29.95 "HgN/A
1:20 AM57 °FCool.10 mph88%29.95 "HgN/A
Weather by CustomWeather, © 2016

See weather overviewHow to use our weather pages